Terminal Aerodrome Forecast
Issued by NWS Caribou, ME

Home | Current Version | Previous Version | Text Only | Print | Product List | Glossary On
Versions: 1 2 3 4 5 6 7 8 9 10 11 12 13
513
FTUS41 KCAR 161720
TAFBGR
TAF
KBGR 161720Z 1618/1718 28006KT P6SM FEW050 SCT250
     FM170000 29005KT P6SM SCT250=

USA.gov is the U.S. government's official web portal to all federal, state and local government web resources and services.